Meteo Giornale » Osservazioni meteo Stati Uniti (USA) » Los Angeles

ore: 23:53 - Osservazioni Meteo Los Angeles
Lat. 33° 56' N Lon. 118° 23' W Alt. 38 metri s.l.m.

molto_nuvoloso America/Los_Angeles

23 °C

Molto Nuvoloso

Temp. 24 Ore

22 °C

27 °C

Ovest/Sud-Ovest

7.4 Km/h

Dew point 20 °C

Umidità 83 %

Visibilità  10 Km

Il sole sorge alle ore 06:15

Il sole tramonta alle ore 19:39

Data e Ora Cielo e Fenomeni T °C DP °C Um. % Pres. hPa Vis. km Vento km/h
Ieri h: 23:53 molto_nuvoloso Molto Nuvoloso 23 20 83 1017 10 O/SO 7.4
Ieri h: 22:53 molto_nuvoloso Molto Nuvoloso 23 19 78 1017 10 O/SO 9.3
Ieri h: 21:53 molto_nuvoloso Molto Nuvoloso 23 19 78 1017 10 O 16.7
Ieri h: 20:53 molto_nuvoloso Molto Nuvoloso 23 20 83 1016 10 O 13
Ieri h: 20:42 molto_nuvoloso Molto Nuvoloso 23 20 83 1016 10 O 13
Ieri h: 19:53 foschia Foschia 23 20 83 1016 10 O 13
Ieri h: 18:53 poco_nuvoloso Poco Nuvoloso 23 19 78 1015 10 O/SO 14.8
Ieri h: 18:36 nuvoloso Nuvoloso 24 19 73 1015 10 O 18.5
Ieri h: 16:53 nuvoloso Nuvoloso 25 19 69 1015 10 O/SO 18.5
Ieri h: 15:53 poco_nuvoloso Poco Nuvoloso 26 19 65 1015 10 O/SO 24
Ieri h: 14:53 poco_nuvoloso Poco Nuvoloso 26 19 65 1016 10 O 22.2
Ieri h: 13:53 poco_nuvoloso Poco Nuvoloso 27 19 61 1016 10 O 24
Ieri h: 12:53 poco_nuvoloso Poco Nuvoloso 26 19 65 1016 10 O 20.3
Ieri h: 11:53 poco_nuvoloso Poco Nuvoloso 26 19 65 1016 10 O/SO 20.3
Ieri h: 10:53 poco_nuvoloso Poco Nuvoloso 26 19 65 1016 14 O 16.7
Ieri h: 09:53 poco_nuvoloso Poco Nuvoloso 26 19 65 1016 10 N 5.5
Ieri h: 08:53 molto_nuvoloso Molto Nuvoloso 24 19 73 1016 14 N 5.5
Ieri h: 07:53 molto_nuvoloso Molto Nuvoloso 23 19 78 1016 14 E/SE 7.4
Ieri h: 06:53 molto_nuvoloso Molto Nuvoloso 22 18 78 1016 14 N 0
Ieri h: 05:53 coperto Coperto 22 18 78 1015 10 E 7.4
Ieri h: 04:53 coperto Coperto 22 19 83 1014 10 S/SE 7.4
Ieri h: 03:53 coperto Coperto 22 19 83 1014 10 S/SE 7.4
Ieri h: 02:53 molto_nuvoloso Molto Nuvoloso 22 19 83 1014 10 O/SO 7.4
Ieri h: 01:53 molto_nuvoloso Molto Nuvoloso 23 19 78 1014 10 N 0
Ieri h: 01:48 molto_nuvoloso Molto Nuvoloso 23 19 78 1014 10 N 5.5
Ieri h: 00:53 poco_nuvoloso Poco Nuvoloso 22 19 83 1014 10 N 5.5